Regional Weather Roundup
Issued by NWS Columbia, SC

Home | Current Version | Previous Version | Text Only | Print | Product List | Glossary On
Versions: 1 2 3 4 5 6 7 8 9 10 11 12 13 14 15 16 17 18 19 20 21 22 23 24 25 26 27 28 29 30 31 32 33 34 35 36 37 38 39 40 41 42 43 44 45 46 47 48 49 50
000
ASUS42 KCAE 020110
RWRCAE
REGIONAL WEATHER ROUNDUP
NATIONAL WEATHER SERVICE COLUMBIA SC
800 PM EST SUN FEB 01 2015

NOTE: "FAIR" INDICATES FEW OR NO CLOUDS BELOW 12,000 FEET WITH NO
SIGNIFICANT WEATHER AND/OR OBSTRUCTIONS TO VISIBILITY.

NOT ALL STATIONS ARE QUALITY CONTROLLED BY THE NATIONAL
WEATHER SERVICE. USE DATA WITH CAUTION...ESPECIALLY
DEWPOINT OBSERVATIONS.

SCZ001>056-GAZ040-063>065-077-020200-
...UPSTATE SOUTH CAROLINA...

CITY           SKY/WX    TMP DP  RH WIND       PRES   REMARKS
ANDERSON       LGT RAIN  46  45  96 VRB3      29.92F FOG
LIBERTY        LGT RAIN  45  44  99 MISG      29.91F
SPARTANBURG    RAIN      52  52 100 CALM      29.93S
CLEMSON        RAIN      47  43  86 N3        29.93F FOG
GREENVILLE     RAIN      47  44  90 CALM      29.94F FOG
GREENWOOD      LGT RAIN  56  48  74 SE9       29.92F
GREER          RAIN      46  46 100 CALM      29.92F FOG
ROCK HILL      LGT RAIN  55  45  68 S8G17     29.93F
CHESTER        LGT RAIN  59  45  58 S10       29.93F
LAURENS        DRIZZLE   54  52  94 S7        29.92F


...CENTRAL SOUTH CAROLINA...

CITY           SKY/WX    TMP DP  RH WIND       PRES   REMARKS
COLUMBIA APT   CLOUDY    62  47  57 SE13      29.96F
COLUMBIA OWENS CLOUDY    62  46  55 VRB6      29.98F
DARLINGTON     CLOUDY    59  45  58 S13       30.00F
FLORENCE       CLOUDY    59  46  62 S9        30.02F
MCENTIRE ANGB  CLOUDY    60  47  62 S12       29.99F
ORANGEBURG     CLOUDY    62  47  57 S10       30.00F
SUMTER SHAW    CLOUDY    60  47  63 SE12      29.97F
NEWBERRY       CLOUDY    59  45  58 S8        29.95F
AIKEN          MOCLDY    61  45  55 SE8       29.99F
BARNWELL       FAIR      63  48  59 S9        29.99F
MANNING        FAIR      61   9  12 S3        30.03S
CAMDEN         FAIR      59  45  58 S7        29.98F
LANCASTER      CLOUDY    57  43  58 S8        29.94F
WINNSBORO      CLOUDY    59  45  58 S10       29.95F


...EASTERN AND COASTAL SOUTH CAROLINA...

CITY           SKY/WX    TMP DP  RH WIND       PRES   REMARKS
MYRTLE BEACH   MOCLDY    55  46  71 S8          N/A
N MYRTLE BCH   CLOUDY    57  49  74 S6        30.06F
CONWAY         FAIR      55  46  71 SE3       30.05F
MARION         FAIR      57  45  62 CALM      30.03F
HARTSVILLE     CLOUDY    61  52  72 S8        30.00F
FLORENCE       CLOUDY    59  46  62 S9        30.02F
DARLINGTON     CLOUDY    59  45  58 S13       30.00F
CHARLESTON APT CLOUDY    61  53  75 S10       30.04F
MOUNT PLEASANT FAIR      61  55  82 S6        30.06F
BEAUFORT       CLOUDY    58  51  78 S6        30.04F


...EASTERN GEORGIA...

CITY           SKY/WX    TMP DP  RH WIND       PRES   REMARKS
AUGUSTA BUSH F CLOUDY    62  45  53 S7        29.96F
AUGUSTA DANIEL CLOUDY    64  45  49 S9        29.95F
THOMSON        CLOUDY    64  50  60 S9        29.98F
WASHINGTON     FAIR      61  55  82 S6        29.92F
CLAXTON        FAIR      63  54  72 SE5       30.00F
SYLVANIA       LGT RAIN  60  55  81 S6        30.00F
STATESBORO     CLOUDY    61  53  74 S8        29.99F
SAVANNAH       CLOUDY    60  50  69 S10       30.03F


...SOUTHERN NORTH CAROLINA...

CITY           SKY/WX    TMP DP  RH WIND       PRES   REMARKS
CHARLOTTE      LGT RAIN  55  40  56 S13       29.92F
MONROE         CLOUDY    58  42  55 S9G21     29.93F
WADESBORO      CLOUDY    56  40  55 SE9       29.95F
ROCKINGHAM       N/A     56  40  56 SE9       29.97F
RUTHERFORDTON  LGT RAIN  45  44  98 CALM      29.93F
ASHEVILLE      LGT RAIN  43  42  97 SE7       29.90F

$$



USA.gov is the U.S. government's official web portal to all federal, state and local government web resources and services.